sat.trackr.live / text

‹ back to catalog

STARLINK-30814

NORAD 58165 · 2023-166R

PAYLOAD ACTIVE UNKNOWN

§ Identity

Operator
Country
US
Launch date
2023-10-29
Launch site
AFWTR
Launch vehicle
Mass (kg)
RCS (m²)

Purposes: comms

External: N2YO · Heavens-Above · Gunter

§ Orbital elements

Epoch: 2026-09-20T13:55:04.032192Z

Period
93.85 min
Inclination
53.1612°
Eccentricity
0.0001106
Mean motion
15.34406281 rev/d
Perigee alt
461.9 km
Apogee alt
463.4 km
Semi-major
6,840.8 km
B*
-1.3446e-5
RAAN
33.2588°
Arg perigee
48.5440°
Mean anomaly
311.5657°
Rev number
16,303

§ Raw data

STARLINK-308141 58165U 23166R   26263.57990778 -.00000830  00000+0 -13446-4 0  99982 58165  53.1612  33.2588 0001106  48.5440 311.5657 15.34406281163032

JSON: /api/v1/satellites/58165 · /tle

For live sub-satellite position, see the globe view (requires WebGL).

§ Visibility from observer

Set your observer location to see the next 7 days of passes ≥ 10°. The values pass through the URL so the page stays shareable.

No JS? Fill the form by hand. The geolocation button needs JavaScript.